SAS7840 LDSP-ESSA

Flight info

Callsign SAS7840
Flight time N/A
Altitude 37000
Route UNIPA DCT KOPRY DCT XENAK/N0444F380 DCT DESEN DCT BEZMI DCT PENOR DCT VSB DCT ROGMI/N0439F370 Z229 NILUG
Aircraft A319/M-SDE3FGIJ1RWXY/LB1

Departure

Time 2026-05-07 17:16
Airport Split Saint Jerome Airport (LDSP)

Arrival

Time N/A
Airport Stockholm-Arlanda Airport (ESSA)
Time Latitude Longitude Altitude Speed Heading
2026-05-07 16:52 43.53762 16.29941 68 ft 0 kts 115°
2026-05-07 17:08 43.53762 16.29940 68 ft 0 kts 115°
2026-05-07 17:12 43.53762 16.29944 68 ft 1 kts 99°
2026-05-07 17:12 43.53774 16.29939 62 ft 2 kts 314°
2026-05-07 17:12 43.53773 16.29873 68 ft 10 kts 270°
2026-05-07 17:12 43.53752 16.29778 63 ft 12 kts 233°
2026-05-07 17:13 43.53698 16.29680 68 ft 14 kts 233°
2026-05-07 17:13 43.53691 16.29556 66 ft 12 kts 285°
2026-05-07 17:13 43.53697 16.29462 81 ft 10 kts 261°
2026-05-07 17:13 43.53652 16.29356 82 ft 15 kts 232°
2026-05-07 17:14 43.53580 16.29227 79 ft 19 kts 233°
2026-05-07 17:14 43.53494 16.29070 82 ft 21 kts 232°
2026-05-07 17:14 43.53397 16.28897 83 ft 24 kts 232°
2026-05-07 17:14 43.53295 16.28715 82 ft 20 kts 233°
2026-05-07 17:15 43.53225 16.28626 75 ft 10 kts 194°
2026-05-07 17:15 43.53218 16.28591 76 ft 6 kts 353°
2026-05-07 17:15 43.53247 16.28625 75 ft 0 kts 52°
2026-05-07 17:15 43.53248 16.28627 74 ft 3 kts 52°
2026-05-07 17:16 43.53380 16.28864 80 ft 61 kts 53°
2026-05-07 17:16 43.53752 16.29542 81 ft 117 kts 52°
2026-05-07 17:16 43.54337 16.30601 262 ft 146 kts 55°
2026-05-07 17:16 43.54943 16.31700 937 ft 143 kts 56°
2026-05-07 17:17 43.55497 16.32834 1570 ft 141 kts 73°
2026-05-07 17:17 43.55673 16.34167 2077 ft 148 kts 99°
2026-05-07 17:17 43.55332 16.35569 2412 ft 164 kts 126°
2026-05-07 17:17 43.54447 16.36600 2977 ft 171 kts 155°
2026-05-07 17:18 43.53262 16.36906 3615 ft 177 kts 174°
2026-05-07 17:18 43.52086 16.37353 4247 ft 180 kts 155°
2026-05-07 17:18 43.50967 16.38155 4939 ft 183 kts 155°
2026-05-07 17:18 43.49828 16.38976 5562 ft 187 kts 156°
2026-05-07 17:19 43.48660 16.39822 6124 ft 197 kts 156°
2026-05-07 17:19 43.47376 16.40738 6584 ft 213 kts 159°
2026-05-07 17:19 43.45930 16.41007 7252 ft 214 kts 197°
2026-05-07 17:19 43.44719 16.39872 8027 ft 216 kts 229°
2026-05-07 17:20 43.43793 16.38262 8873 ft 217 kts 232°
2026-05-07 17:20 43.43015 16.36448 9648 ft 226 kts 251°
2026-05-07 17:20 43.42942 16.34270 10377 ft 237 kts 281°
2026-05-07 17:20 43.43762 16.32272 11129 ft 249 kts 314°
2026-05-07 17:21 43.45329 16.31182 11894 ft 261 kts 346°
2026-05-07 17:21 43.47123 16.30837 12697 ft 265 kts 350°
2026-05-07 17:21 43.48969 16.30555 13507 ft 269 kts 354°